FW6588 Weather Reports


time (UTC)temp
C
wind
direction
speed
KPH
gust
KPH
rain 1hr
cm
rain 24hr
cm
rain mn
cm
humidity
%
barometer
mb
20260509054813 21 116 0.0 0.0 0.00 0.00 0.00 86 1010.5
20260509054307 21 116 0.0 0.0 0.00 0.00 0.00 85 1010.6
20260509053801 21 115 0.0 0.0 0.00 0.00 0.00 85 1010.6
20260509053301 21 115 0.0 0.0 0.00 0.00 0.00 85 1010.4
20260509052800 21 179 0.0 0.0 0.00 0.00 0.00 85 1010.3
20260509052301 21 196 0.0 1.6 0.00 0.00 0.00 85 1010.8
20260509051801 21 285 0.0 1.6 0.00 0.00 0.00 85 1011.2
20260509051300 21 259 0.0 1.6 0.00 0.00 0.00 85 1011.2
20260509050759 21 319 0.0 1.6 0.00 0.00 0.00 85 1011.1
20260509050613 21 4 0.0 0.0 0.00 0.00 0.00 85 1010.3
20260509045905 21 262 0.0 1.6 0.00 0.00 0.00 85 1009.9
20260509044759 21 238 0.0 0.0 0.00 0.00 0.00 84 1009.6
20260509044300 21 285 0.0 1.6 0.00 0.00 0.00 83 1009.7
20260509043756 21 335 0.0 1.6 0.00 0.00 0.00 83 1009.6
20260509043258 21 271 0.0 4.8 0.00 0.00 0.00 83 1009.4
20260509042757 22 259 0.0 6.4 0.00 0.00 0.00 83 1009.2
20260509042258 22 281 0.0 6.4 0.00 0.00 0.00 83 1009.2
20260509041754 22 238 0.0 3.2 0.00 0.00 0.00 83 1009.4
20260509041255 22 190 0.0 3.2 0.00 0.00 0.00 83 1009.4
20260509040749 22 134 0.0 1.6 0.00 0.00 0.00 83 1009.5
20260509040244 22 351 0.0 1.6 0.00 0.00 0.00 83 1009.9
20260509035737 22 351 0.0 0.0 0.00 0.00 0.00 82 1010.5
20260509035232 22 351 0.0 0.0 0.00 0.00 0.00 82 1010.6
20260509034724 22 351 0.0 0.0 0.00 0.00 0.00 82 1010.5
20260509034220 22 351 0.0 1.6 0.00 0.00 0.00 82 1010.6
20260509033713 22 351 0.0 1.6 0.00 0.00 0.00 82 1010.6
20260509033207 22 347 0.0 0.0 0.00 0.00 0.00 82 1010.5
20260509032702 22 347 0.0 0.0 0.00 0.00 0.00 81 1010.2
20260509032155 22 347 0.0 0.0 0.00 0.00 0.00 81 1009.9
20260509031648 22 347 0.0 0.0 0.00 0.00 0.00 81 1009.9
20260509031143 22 347 0.0 0.0 0.00 0.00 0.00 81 1009.9
20260509030637 22 347 0.0 1.6 0.00 0.00 0.00 81 1009.9
20260509030132 22 347 0.0 1.6 0.00 0.00 0.00 81 1009.8
20260509025625 22 147 0.0 1.6 0.00 0.00 0.00 81 1009.7
20260509025119 22 151 0.0 1.6 0.00 0.00 0.00 81 1009.5
20260509024925 22 37 0.0 3.2 0.00 0.00 0.00 81 1009.4
20260509024423 22 37 0.0 3.2 0.00 0.00 0.00 81 1009.3
20260509023602 22 131 0.0 3.2 0.00 0.00 0.00 81 1009.1
20260509023401 22 55 0.0 3.2 0.00 0.00 0.00 81 1008.9
20260509022549 22 60 0.0 3.2 0.00 0.00 0.00 81 1008.8
20260509022150 22 37 0.0 4.8 0.00 0.00 0.00 81 1008.8
20260509021337 22 167 0.0 1.6 0.00 0.00 0.00 80 1008.9
20260509020525 22 284 0.0 4.8 0.00 0.00 0.00 80 1008.9
20260509020019 22 277 0.0 4.8 0.00 0.00 0.00 80 1008.8
20260509015512 22 292 0.0 3.2 0.00 0.00 0.00 80 1008.8
20260509015318 22 262 0.0 1.6 0.00 0.00 0.00 79 1008.8
20260509014504 22 246 0.0 3.2 0.00 0.00 0.00 79 1008.6
20260509013957 22 254 0.0 3.2 0.00 0.00 0.00 79 1008.6
20260509013451 22 15 0.0 0.0 0.00 0.00 0.00 79 1008.6
20260509012943 22 15 0.0 0.0 0.00 0.00 0.00 79 1008.6
20260509012438 22 15 0.0 1.6 0.00 0.00 0.00 78 1008.6
20260509011932 22 15 0.0 1.6 0.00 0.00 0.00 78 1008.5
20260509011755 22 15 0.0 1.6 0.00 0.00 0.00 78 1008.5
20260509010919 22 1 0.0 1.6 0.00 0.00 0.00 78 1008.4
20260509010419 22 110 0.0 1.6 0.00 0.00 0.00 77 1008.4
20260509010238 22 257 0.0 3.2 0.00 0.00 0.00 77 1008.4
20260509005419 22 130 0.0 3.2 0.00 0.00 0.00 77 1008.3
20260509004920 22 300 0.0 9.7 0.00 0.00 0.00 77 1008.2
20260509004417 22 309 1.6 9.7 0.00 0.00 0.00 76 1008.1
20260509003917 22 244 1.6 6.4 0.00 0.00 0.00 76 1008.0
20260509003414 22 261 0.0 4.8 0.00 0.00 0.00 76 1007.9
20260509002918 23 311 0.0 4.8 0.00 0.00 0.00 76 1007.9
20260509002720 23 323 1.6 6.4 0.00 0.00 0.00 75 1007.9
20260509001913 23 129 1.6 6.4 0.00 0.00 0.00 75 1007.9
20260509001414 23 283 1.6 4.8 0.00 0.00 0.00 74 1007.9
20260509000914 23 42 0.0 4.8 0.00 0.00 0.00 74 1007.9
20260509000411 23 183 1.6 6.4 0.00 0.00 0.00 73 1008.1
20260508235912 23 354 1.6 4.8 0.00 0.00 0.00 73 1008.2
20260508235411 23 189 1.6 8.0 0.00 0.00 0.00 72 1008.2
20260508234910 23 219 1.6 8.0 0.00 0.00 0.00 72 1008.2
20260508234737 23 15 1.6 6.4 0.00 0.00 0.00 72 1008.3
20260508233905 24 271 1.6 6.4 0.00 0.00 0.00 71 1008.3
20260508233714 24 250 1.6 8.0 0.00 0.00 0.00 72 1008.3
20260508232852 24 6 1.6 8.0 0.00 0.00 0.00 71 1008.4
20260508232349 24 326 0.0 4.8 0.00 0.00 0.00 71 1008.5
20260508232156 24 40 0.0 3.2 0.00 0.00 0.00 71 1008.5
20260508231336 24 283 0.0 3.2 0.00 0.00 0.00 70 1008.5
20260508230831 25 256 0.0 4.8 0.00 0.00 0.00 71 1008.5
20260508230322 25 313 0.0 4.8 0.00 0.00 0.00 70 1008.5
20260508225816 25 274 0.0 4.8 0.00 0.00 0.00 71 1008.5
20260508225311 25 93 1.6 6.4 0.00 0.00 0.00 71 1008.5
20260508224803 25 205 1.6 8.0 0.00 0.00 0.00 71 1008.6
20260508224632 25 19 0.0 8.0 0.00 0.00 0.00 70 1008.5
20260508224110 25 264 0.0 8.0 0.00 0.00 0.00 71 1008.5
20260508223246 25 262 0.0 8.0 0.00 0.00 0.00 71 1008.4
20260508222742 25 9 0.0 8.0 0.00 0.00 0.00 71 1008.4
20260508222545 25 131 1.6 11.3 0.00 0.00 0.00 72 1008.4
20260508221730 25 68 1.6 11.3 0.00 0.00 0.00 71 1008.3
20260508221600 25 42 1.6 9.7 0.00 0.00 0.00 71 1008.2
20260508220719 25 159 0.0 4.8 0.00 0.00 0.00 70 1008.2
20260508220211 25 353 0.0 6.4 0.00 0.00 0.00 70 1008.1
20260508215705 25 18 1.6 6.4 0.00 0.00 0.00 71 1008.0
20260508215159 25 306 1.6 4.8 0.00 0.00 0.00 70 1008.2
20260508214652 25 298 1.6 4.8 0.00 0.00 0.00 71 1008.2
20260508214147 25 266 1.6 4.8 0.00 0.00 0.00 71 1008.1
20260508213952 25 153 1.6 8.0 0.00 0.00 0.00 70 1008.0
20260508213135 25 23 1.6 8.0 0.00 0.00 0.00 69 1008.2
20260508212628 25 108 1.6 8.0 0.00 0.00 0.00 70 1008.4
20260508212124 25 153 1.6 8.0 0.00 0.00 0.00 70 1008.5
20260508211931 24 314 1.6 8.0 0.00 0.00 0.00 70 1008.9
20260508211113 24 20 1.6 8.0 0.00 0.00 0.00 70 1009.0
20260508210918 24 276 1.6 6.4 0.00 0.00 0.00 70 1009.2
20260508210413 24 287 0.0 8.0 0.00 0.00 0.00 70 1009.5
20260508205552 24 173 0.0 8.0 0.00 0.00 0.00 70 1009.6
20260508205047 24 340 0.0 4.8 0.00 0.00 0.00 69 1009.8
20260508204541 24 244 0.0 3.2 0.00 0.00 0.00 69 1009.9
20260508204034 24 210 0.0 4.8 0.00 0.00 0.00 68 1010.0
20260508203529 25 227 0.0 4.8 0.00 0.00 0.00 68 1010.2
20260508203023 25 220 0.0 4.8 0.00 0.00 0.00 67 1010.2
20260508202517 25 303 0.0 4.8 0.00 0.00 0.00 67 1010.2
20260508202019 25 83 0.0 3.2 0.00 0.00 0.00 67 1010.2
20260508201515 25 283 0.0 4.8 0.00 0.00 0.00 66 1010.0
20260508201337 26 266 1.6 9.7 0.00 0.00 0.00 66 1010.1
20260508200514 26 358 1.6 9.7 0.00 0.00 0.00 65 1010.1
20260508200015 26 63 1.6 9.7 0.00 0.00 0.00 66 1010.1
20260508195514 26 338 1.6 8.0 0.00 0.00 0.00 65 1010.2
20260508195013 26 76 1.6 8.0 0.00 0.00 0.00 66 1010.2
20260508194822 26 37 1.6 11.3 0.00 0.00 0.00 66 1010.3
20260508194017 26 63 1.6 11.3 0.00 0.00 0.00 66 1010.3
20260508193512 26 121 0.0 4.8 0.00 0.00 0.00 66 1010.4
20260508193012 26 1 1.6 9.7 0.00 0.00 0.00 66 1010.3
20260508192511 26 91 1.6 9.7 0.00 0.00 0.00 66 1010.4
20260508192010 26 49 1.6 8.0 0.00 0.00 0.00 67 1010.4
20260508191511 25 96 1.6 6.4 0.00 0.00 0.00 66 1010.5
20260508191009 26 123 1.6 6.4 0.00 0.00 0.00 65 1010.5
20260508190509 26 278 1.6 6.4 0.00 0.00 0.00 63 1010.6
20260508190325 26 136 1.6 6.4 0.00 0.00 0.00 66 1010.6
20260508185509 25 30 3.2 11.3 0.00 0.00 0.00 65 1010.6
20260508185003 25 121 3.2 11.3 0.00 0.00 0.00 66 1010.7
20260508184808 25 108 3.2 9.7 0.00 0.00 0.00 67 1010.6
20260508183950 25 146 1.6 9.7 0.00 0.00 0.00 64 1010.8
20260508183447 25 63 3.2 9.7 0.00 0.00 0.00 65 1010.9
20260508182939 25 25 1.6 9.7 0.00 0.00 0.00 61 1010.9
20260508182433 25 106 0.0 6.4 0.00 0.00 0.00 63 1011.1
20260508182239 25 287 1.6 8.0 0.00 0.00 0.00 62 1011.1
20260508181420 25 44 0.0 8.0 0.00 0.00 0.00 64 1011.2
20260508180915 25 263 0.0 6.4 0.00 0.00 0.00 65 1011.4
20260508180409 25 13 1.6 6.4 0.00 0.00 0.00 63 1011.5
20260508175903 25 84 1.6 8.0 0.00 0.00 0.00 64 1011.6
20260508175357 25 11 1.6 8.0 0.00 0.00 0.00 66 1011.6
20260508175206 25 149 1.6 8.0 0.00 0.00 0.00 65 1011.7
20260508174716 25 45 1.6 4.8 0.00 0.00 0.00 64 1011.7
20260508173856 24 12 1.6 9.7 0.00 0.00 0.00 66 1011.7
20260508173350 24 32 3.2 9.7 0.00 0.00 0.00 66 1011.7
20260508172850 24 27 1.6 9.7 0.00 0.00 0.00 66 1011.8
20260508172702 24 92 1.6 6.4 0.00 0.00 0.00 65 1012.0
20260508172158 23 350 1.6 6.4 0.00 0.00 0.00 68 1012.2
20260508171348 23 146 1.6 9.7 0.00 0.00 0.00 69 1012.4
20260508170850 23 16 0.0 9.7 0.00 0.00 0.00 69 1012.5
20260508170348 23 42 1.6 8.0 0.00 0.00 0.00 68 1012.6
20260508165846 23 309 1.6 8.0 0.00 0.00 0.00 69 1012.7
20260508165346 23 124 0.0 8.0 0.00 0.00 0.00 67 1012.8
20260508164951 23 127 0.0 3.2 0.00 0.00 0.00 67 1013.0
20260508163846 23 77 0.0 3.2 0.00 0.00 0.00 66 1013.2
20260508163725 22 128 0.0 6.4 0.00 0.00 0.00 68 1013.2
20260508162848 22 138 1.6 8.0 0.00 0.00 0.00 69 1013.2
20260508162343 22 148 1.6 8.0 0.00 0.00 0.00 69 1013.4
20260508161843 22 80 1.6 6.4 0.00 0.00 0.00 68 1013.4
20260508161343 22 96 0.0 6.4 0.00 0.00 0.00 67 1013.4
20260508160842 22 338 0.0 9.7 0.00 0.00 0.00 69 1013.4
20260508160342 22 124 1.6 9.7 0.00 0.00 0.00 69 1013.4
20260508155843 22 92 0.0 4.8 0.00 0.00 0.00 67 1013.8
20260508155343 22 271 0.0 4.8 0.00 0.00 0.00 68 1013.9
20260508154843 22 222 1.6 9.7 0.00 0.00 0.00 68 1013.8
20260508154344 21 147 1.6 9.7 0.00 0.00 0.00 68 1013.8
20260508153842 22 358 0.0 6.4 0.00 0.00 0.00 67 1013.8
20260508153342 22 312 1.6 8.0 0.00 0.00 0.00 68 1013.8
20260508152840 21 45 1.6 8.0 0.00 0.00 0.00 68 1013.9
20260508152651 21 255 0.0 6.4 0.00 0.00 0.00 68 1014.0
20260508151840 21 257 0.0 3.2 0.00 0.00 0.00 68 1014.1
20260508151341 21 348 0.0 3.2 0.00 0.00 0.00 68 1014.0
20260508150837 21 281 0.0 3.2 0.00 0.00 0.00 68 1014.0
20260508150332 22 106 0.0 4.8 0.00 0.00 0.00 67 1014.0
20260508145832 21 86 0.0 4.8 0.00 0.00 0.00 70 1014.0
20260508145331 21 312 0.0 3.2 0.00 0.00 0.00 72 1013.7
20260508144831 20 24 1.6 6.4 0.00 0.00 0.00 72 1013.8
20260508144329 21 56 1.6 6.4 0.00 0.00 0.00 71 1013.9
20260508143828 21 48 1.6 8.0 0.00 0.00 0.00 70 1014.0
20260508143327 21 32 1.6 8.0 0.00 0.00 0.00 71 1014.2
20260508142824 20 27 1.6 6.4 0.00 0.00 0.00 73 1014.2
20260508142326 20 37 1.6 6.4 0.00 0.00 0.00 73 1014.1
20260508141825 20 90 0.0 4.8 0.00 0.00 0.00 75 1014.3
20260508141325 19 51 0.0 6.4 0.00 0.00 0.00 76 1014.3
20260508140824 19 15 0.0 6.4 0.00 0.00 0.00 75 1014.2
20260508140324 20 321 1.6 6.4 0.00 0.00 0.00 75 1014.2
20260508135823 20 131 1.6 6.4 0.00 0.00 0.00 77 1014.3
20260508135425 19 12 0.0 3.2 0.00 0.00 0.00 79 1014.3
20260508134320 18 40 0.0 3.2 0.00 0.00 0.00 82 1014.2
20260508133820 18 115 0.0 3.2 0.00 0.00 0.00 82 1014.3
20260508133319 18 115 0.0 1.6 0.00 0.00 0.00 82 1014.3
20260508132921 18 139 0.0 1.6 0.00 0.00 0.00 84 1014.3
20260508131817 17 37 0.0 1.6 0.00 0.00 0.00 86 1014.3
20260508131638 17 155 0.0 1.6 0.00 0.00 0.00 88 1014.3
20260508130818 17 39 0.0 1.6 0.00 0.00 0.00 89 1014.4
20260508130318 16 8 0.0 1.6 0.00 0.00 0.00 89 1014.7
20260508125817 16 8 0.0 1.6 0.00 0.00 0.00 88 1014.7
20260508125315 16 8 0.0 1.6 0.00 0.00 0.00 88 1014.3
20260508124814 16 8 0.0 0.0 0.00 0.00 0.00 88 1014.4
20260508124314 16 347 0.0 1.6 0.00 0.00 0.00 88 1014.9
20260508124124 16 29 0.0 1.6 0.00 0.00 0.00 88 1014.7
20260508123321 16 341 0.0 1.6 0.00 0.00 0.00 88 1014.7
20260508122814 16 341 0.0 1.6 0.00 0.00 0.00 88 1014.5
20260508122315 16 30 0.0 1.6 0.00 0.00 0.00 88 1014.6
20260508121816 16 30 0.0 1.6 0.00 0.00 0.00 88 1014.6
20260508121311 16 30 0.0 1.6 0.00 0.00 0.00 88 1014.6
20260508120810 16 30 0.0 0.0 0.00 0.00 0.00 88 1014.6
20260508120311 16 30 0.0 0.0 0.00 0.00 0.00 88 1014.9
20260508115812 16 30 0.0 0.0 0.00 0.00 0.00 87 1014.7
20260508115311 16 30 0.0 0.0 0.00 0.00 0.00 87 1014.4
20260508114810 16 30 0.0 0.0 0.00 0.00 0.00 87 1014.6
20260508114310 16 30 0.0 1.6 0.00 0.00 0.00 87 1014.9
20260508113811 16 30 0.0 3.2 0.00 0.00 0.00 87 1014.9
20260508113311 16 49 0.0 3.2 0.00 0.00 0.00 87 1014.2
20260508112806 16 27 0.0 1.6 0.00 0.00 0.00 87 1014.2
20260508112307 16 33 0.0 3.2 0.00 0.00 0.00 87 1014.3
20260508112120 16 33 0.0 3.2 0.00 0.00 0.00 87 1014.4
20260508111306 16 95 0.0 0.0 0.00 0.00 0.00 87 1014.5
20260508110807 16 138 0.0 0.0 0.00 0.00 0.00 87 1015.1
20260508110306 16 138 0.0 0.0 0.00 0.00 0.00 87 1015.1
20260508105807 16 130 0.0 0.0 0.00 0.00 0.00 88 1014.6
20260508105307 16 101 0.0 0.0 0.00 0.00 0.00 88 1014.7
20260508104810 16 144 0.0 0.0 0.00 0.00 0.00 88 1015.2
20260508104617 16 6 0.0 0.0 0.00 0.00 0.00 89 1015.2
20260508103802 16 6 0.0 0.0 0.00 0.00 0.00 89 1014.3
20260508103303 16 6 0.0 0.0 0.00 0.00 0.00 89 1014.1
20260508103128 16 6 0.0 0.0 0.00 0.00 0.00 89 1013.8
20260508102306 16 12 0.0 0.0 0.00 0.00 0.00 89 1013.8
20260508101802 16 12 0.0 0.0 0.00 0.00 0.00 89 1013.6
20260508101616 16 12 0.0 0.0 0.00 0.00 0.00 89 1013.4
20260508100802 16 12 0.0 0.0 0.00 0.00 0.00 89 1013.4
20260508100615 16 12 0.0 1.6 0.00 0.00 0.00 89 1013.7
20260508095802 16 12 0.0 1.6 0.00 0.00 0.00 89 1013.3
20260508095306 16 13 0.0 1.6 0.00 0.00 0.00 89 1013.3
20260508094802 16 239 0.0 1.6 0.00 0.00 0.00 90 1013.4
20260508094302 16 239 0.0 0.0 0.00 0.00 0.00 90 1013.6
20260508093806 15 240 0.0 0.0 0.00 0.00 0.00 90 1014.0
20260508093303 16 240 0.0 0.0 0.00 0.00 0.00 90 1013.9
20260508092802 16 240 0.0 0.0 0.00 0.00 0.00 90 1013.7
20260508092312 16 240 0.0 0.0 0.00 0.00 0.00 89 1013.7
20260508091758 16 240 0.0 0.0 0.00 0.00 0.00 88 1013.8
20260508091301 16 240 0.0 0.0 0.00 0.00 0.00 88 1013.9
20260508090758 16 240 0.0 0.0 0.00 0.00 0.00 88 1014.1
20260508090300 16 240 0.0 0.0 0.00 0.00 0.00 88 1014.1
20260508085757 16 240 0.0 1.6 0.00 0.00 0.00 88 1014.2
20260508085607 16 240 0.0 3.2 0.00 0.00 0.00 88 1014.0
20260508085102 16 324 0.0 3.2 0.00 0.00 0.00 88 1013.7
20260508084254 16 44 0.0 3.2 0.00 0.00 0.00 89 1013.6
20260508083757 16 38 0.0 1.6 0.00 0.00 0.00 89 1013.9
20260508083615 16 38 0.0 0.0 0.00 0.00 0.00 89 1014.3
20260508082757 16 38 0.0 0.0 0.00 0.00 0.00 90 1014.4
20260508082246 16 38 0.0 1.6 0.00 0.00 0.00 90 1014.5
20260508081746 16 39 0.0 1.6 0.00 0.00 0.00 90 1014.6
20260508081240 16 24 0.0 0.0 0.00 0.00 0.00 90 1014.6
20260508080739 15 24 0.0 0.0 0.00 0.00 0.00 90 1015.1
20260508080238 15 24 0.0 0.0 0.00 0.00 0.00 91 1015.4
20260508075737 15 24 0.0 0.0 0.00 0.00 0.00 91 1015.6
20260508075236 15 24 0.0 0.0 0.00 0.00 0.00 91 1015.4
20260508075036 15 24 0.0 0.0 0.00 0.00 0.00 91 1015.3
20260508074234 15 24 0.0 0.0 0.00 0.00 0.00 91 1015.1
20260508074046 15 24 0.0 0.0 0.00 0.00 0.00 91 1014.8
20260508073232 15 24 0.0 0.0 0.00 0.00 0.00 91 1014.7
20260508072732 15 24 0.0 0.0 0.00 0.00 0.00 91 1014.8
20260508072230 15 24 0.0 0.0 0.00 0.00 0.00 91 1014.9
20260508071730 15 24 0.0 0.0 0.00 0.00 0.00 91 1014.8
20260508071230 15 24 0.0 0.0 0.00 0.00 0.00 91 1014.9
20260508070731 15 24 0.0 0.0 0.00 0.00 0.00 91 1015.0
20260508070228 15 24 0.0 0.0 0.00 0.00 0.00 91 1014.8
20260508065729 15 24 0.0 0.0 0.00 0.00 0.00 90 1015.1
20260508065222 15 24 0.0 0.0 0.00 0.00 0.00 90 1015.2
20260508064716 15 24 0.0 0.0 0.00 0.00 0.00 90 1015.3
20260508064210 15 24 0.0 0.0 0.00 0.00 0.00 90 1015.4
20260508064013 15 24 0.0 0.0 0.00 0.00 0.00 91 1015.3
20260508063508 15 24 0.0 0.0 0.00 0.00 0.00 91 1015.4
20260508062653 15 24 0.0 0.0 0.00 0.00 0.00 91 1015.5
20260508062514 15 24 0.0 0.0 0.00 0.00 0.00 91 1015.5
20260508061640 14 24 0.0 0.0 0.00 0.00 0.00 91 1015.5
20260508061134 14 24 0.0 0.0 0.00 0.00 0.00 90 1015.4
20260508060628 15 24 0.0 0.0 0.00 0.00 0.00 90 1015.3
20260508060122 15 24 0.0 0.0 0.00 0.00 0.00 90 1015.5
20260508055617 15 24 0.0 0.0 0.00 0.00 0.00 90 1015.5
20260508055110 15 24 0.0 0.0 0.00 0.00 0.00 90 1015.5